Location: Unspecified
(0.0000°N, 0.0000°E)
Time: 15:20:33
(UTC+00:00)

DMSP 5D-2 F13 DEB - Pass Details

Date: 19 February 2026
Orbit: 782 x 824 km, 98.9° (Epoch: 8 March)

Event Time Altitude Azimuth Distance (km) Brightness Sun altitude
Rises 19:42:47 0° 180° (S) 3,276 ? -21.8°
Reaches altitude 10° 19:45:13 10° 186° (S) 2,342 ? -22.4°
Maximum altitude 19:50:04 43° 257° (WSW) 1,087 ? -23.6°
Drops below altitude 10° 19:54:55 10° 328° (NNW) 2,328 ? -24.8°
Sets 19:57:20 0° 335° (NNW) 3,255 ? -25.4°
